TimeCST,TemperatureF,Dew PointF,Humidity,Sea Level PressureIn,VisibilityMPH,Wind Direction,Wind SpeedMPH,Gust SpeedMPH,PrecipitationIn,Events,Conditions,WindDirDegrees,DateUTC
12:00 AM,82.4,71.6,70,29.83,5.6,Calm,Calm,-,N/A,,Scattered Clouds,0,2013-03-26 06:00:00
1:00 AM,78.8,71.6,78,29.83,5.6,Calm,Calm,-,N/A,,Scattered Clouds,0,2013-03-26 07:00:00
3:00 AM,78.8,73.4,83,29.77,5.6,ESE,6.9,-,N/A,,Partly Cloudy,120,2013-03-26 09:00:00
4:00 AM,78.8,71.6,78,29.77,5.6,ESE,9.2,-,N/A,,Partly Cloudy,120,2013-03-26 10:00:00
5:00 AM,78.8,71.6,78,29.77,5.6,East,6.9,-,N/A,,Partly Cloudy,80,2013-03-26 11:00:00
6:00 AM,78.8,71.6,78,29.83,5.6,East,4.6,-,N/A,,Partly Cloudy,100,2013-03-26 12:00:00
7:00 AM,82.4,73.4,74,29.83,5.6,East,9.2,-,N/A,,Partly Cloudy,90,2013-03-26 13:00:00
8:00 AM,84.2,71.6,66,29.86,5.6,ESE,11.5,-,N/A,,Scattered Clouds,110,2013-03-26 14:00:00
9:00 AM,87.8,69.8,55,29.89,6.2,East,16.1,-,N/A,,Partly Cloudy,80,2013-03-26 15:00:00
10:00 AM,91.4,69.8,49,29.89,6.2,ENE,18.4,-,N/A,,Partly Cloudy,70,2013-03-26 16:00:00
11:00 AM,93.2,69.8,46,29.86,5.6,ENE,13.8,-,N/A,,Partly Cloudy,70,2013-03-26 17:00:00
12:00 PM,96.8,71.6,44,29.83,5.6,NE,11.5,-,N/A,,Partly Cloudy,50,2013-03-26 18:00:00
1:00 PM,96.8,68.0,39,29.80,5.6,NE,13.8,-,N/A,,Partly Cloudy,40,2013-03-26 19:00:00
2:00 PM,96.8,68.0,39,29.74,5.6,ENE,16.1,-,N/A,,Partly Cloudy,60,2013-03-26 20:00:00
3:00 PM,98.6,68.0,37,29.74,5.6,ENE,16.1,-,N/A,,Partly Cloudy,70,2013-03-26 21:00:00
4:00 PM,96.8,68.0,39,29.71,5.6,East,11.5,-,N/A,,Partly Cloudy,90,2013-03-26 22:00:00
5:00 PM,95.0,68.0,41,29.71,5.6,East,13.8,-,N/A,,Partly Cloudy,80,2013-03-26 23:00:00
6:00 PM,93.2,66.2,41,29.74,6.2,ENE,9.2,-,N/A,,Partly Cloudy,70,2013-03-27 00:00:00
7:00 PM,91.4,68.0,46,29.77,5.6,East,9.2,-,N/A,,Partly Cloudy,80,2013-03-27 01:00:00
8:00 PM,89.6,69.8,52,29.83,5.6,East,11.5,-,N/A,,Partly Cloudy,90,2013-03-27 02:00:00
9:00 PM,87.8,69.8,55,29.86,6.2,East,16.1,-,N/A,,Scattered Clouds,90,2013-03-27 03:00:00
9:45 PM,87.8,69.8,55,29.86,6.2,East,16.1,-,N/A,,Scattered Clouds,90,2013-03-27 03:45:00
10:00 PM,86.0,69.8,58,29.89,6.2,East,16.1,-,N/A,,Scattered Clouds,90,2013-03-27 04:00:00
11:00 PM,84.2,69.8,62,29.89,5.6,East,13.8,-,N/A,,Scattered Clouds,90,2013-03-27 05:00:00